Miscellaneous Local Product
Issued by NWS North Platte, NE

Home | Current Version | Previous Version | Graphics & Text | Print | Product List | Glossary On
Versions: 1 2 3 4 5 6 7 8 9 10 11 12 13 14 15 16 17 18 19 20 21 22 23 24 25 26 27 28 29 30 31 32 33 34 35 36 37 38 39 40 41 42 43 44 45 46 47 48 49 50
000
AXUS43 KLBF 260110
MISLBF


WESTERN AND NORTH CENTRAL NEBRASKA HOURLY WEATHER ROUNDUP
NATIONAL WEATHER SERVICE NORTH PLATTE NE
800 PM CDT SAT MAR 25 2017

NOTE: "FAIR" INDICATES FEW OR NO CLOUDS BELOW 12,000 FEET WITH NO
SIGNIFICANT WEATHER AND/OR OBSTRUCTIONS TO VISIBILITY.

NOTE: STATIONS NOT REPORTING VARIABLES SUCH AS SKY/WEATHER OR
PRESSURE ARE PROVIDED BY RAWS AND APRS NETWORKS AND ARE NOT UNDER
NATIONAL WEATHER SERVICE QUALITY CONTROL.

...OBSERVATIONS IN AND NEAR THE EASTERN PANHANDLE OF NEBRASKA...

CITY           SKY/WX    TMP DP  RH WIND       PRES   REMARKS
PINE RIDGE     CLOUDY    61  32  33 S8        29.80S
CHADRON        CLOUDY    59  39  47 SE5       29.78F
ALLIANCE       CLOUDY    55  31  39 SE9       29.82F
SIDNEY         CLOUDY    52  33  48 SE8       29.86F
CRESCENT LAKE    N/A     54  31  40 SE6         N/A
$$

...OBSERVATIONS IN NORTHERN NEBRASKA AND FAR SOUTHERN SOUTH DAKOTA...

CITY           SKY/WX    TMP DP  RH WIND       PRES   REMARKS
WINNER         FAIR      46  35  65 SE14      29.91R
VALENTINE      CLEAR     53  30  41 SE13      29.87R
THEDFORD       CLOUDY    53  37  54 SE9       29.89S
AINSWORTH      CLEAR     46  40  80 E10       29.90S
O`NEILL        CLOUDY    39  38  97 E8        29.95S FOG     WCI  34
ORD            CLOUDY    40  38  93 NE6       29.93S FOG
BROKEN BOW     CLOUDY    46  40  79 E8        29.91S
VALENTINE NWR    N/A     58  24  27 SE8         N/A
HALSEY           N/A     52  38  59 SE7         N/A
BUTTE            N/A     40  37  89 E8          N/A  WCI  34
CHAMBERS         N/A     39  37  94 E3          N/A
EWING            N/A     39  38  97 E3          N/A
$$

...OBSERVATIONS IN SOUTHWEST NEBRASKA AND FAR NORTHEAST COLORADO...

CITY           SKY/WX    TMP DP  RH WIND       PRES   REMARKS
WRAY           FAIR      54  28  37 SE5       29.88F
HOLYOKE        FAIR      54  34  47 SE8       29.87S
IMPERIAL       CLOUDY    54  28  36 SE3       29.88S
OGALLALA       CLOUDY    56  29  36 SE5       29.87S
NORTH PLATTE   CLOUDY    52  41  66 SE12      29.89R
MCCOOK         CLOUDY    50  43  77 E13       29.90R
LEXINGTON      CLOUDY    45  40  83 E7        29.92S
STAPLETON        N/A     51  40  65 CALM        N/A
GOTHENBURG       N/A     50  41  70 SE10        N/A
CALLAWAY         N/A     51  43  74 E8          N/A
$$

...OBSERVATIONS IN CENTRAL LINCOLN COUNTY AREA...

CITY           SKY/WX    TMP DP  RH WIND       PRES   REMARKS
N.P. AIRPORT   CLOUDY    52  41  66 SE12      29.89R
N.P. DOWNTOWN    N/A     54  43  66 E3G13       N/A
N.P. SOUTHEAST   N/A     52  44  73 E9          N/A
N.P. HILLCREST   N/A     53  40  61 SE9         N/A
$$

...SOME OBSERVATIONS FROM AROUND THE REGION...

CITY           SKY/WX    TMP DP  RH WIND       PRES   REMARKS
DENVER         CLOUDY    52  32  46 SE10      29.84S
LIMON          CLOUDY    48  33  56 SE10      29.87F
ASPEN          CLOUDY    51  20  29 VRB3      29.88R
LARAMIE        CLOUDY    48  24  39 SE17      29.87R
CASPER         CLOUDY    51  33  50 N10       29.85R
CHEYENNE       CLOUDY    53  23  31 S10       29.87S
SCOTTSBLUFF    CLOUDY    60  32  34 SE8       29.81R
GRAND ISLAND   CLOUDY    39  39 100 NE9       29.94S FOG     WCI  33
OMAHA          DRIZZLE   42  37  82 NE10      29.93F FOG
SIOUX FALLS    CLOUDY    41  38  89 E13       29.99S
PIERRE         CLOUDY    48  33  56 E16       29.89S
RAPID CITY     CLOUDY    56  34  43 N10       29.80F
BISMARCK       CLOUDY    49  34  56 E3        29.91S
KANSAS CITY    CLOUDY    47  45  93 NW12      29.88R
HILL CITY      CLEAR     46  40  79 SE6       29.92R
WICHITA        CLOUDY    46  41  82 NW8       29.93R
DODGE CITY     CLEAR     52  40  63 E8        29.89R
OKLAHOMA CITY  PTCLDY    54  43  66 E5        29.91S
DALLAS         PTCLDY    66  46  48 N7        29.89S
AMARILLO       CLOUDY    61  32  33 E8        29.88F
$$




USA.gov is the U.S. government's official web portal to all federal, state and local government web resources and services.